Temperature
9 10 10 11 11 11 11 11 11 11 11 11 11 11 11 11 11 11 11 11 11 11 11 11 10 10 10 10 10 10 10 10 10 10 9 9 9 10 10 10 10 10 10
8 9 9 10 10 11 11 11 11 11 11 11 11 11 11 11 11 11 11 11 11 10 10 10 10 10 10 10 10 10 10 9 9 9 9 9 9 9 9 9 9 10 10
7 8 9 9 10 10 10 10 11 11 11 11 11 11 10 10 10 10 10 10 10 10 10 10 10 10 10 10 10 10 10 9 9 9 9 9 9 9 9 9 9 9 9
7 7 8 9 9 9 10 10 10 10 10 10 10 10 10 10 10 10 10 10 10 10 10 10 10 10 9 9 9 9 9 9 9 9 9 9 9 9 8 9 9 9 9
6 7 7 8 8 8 9 9 10 10 10 10 10 10 10 10 10 10 10 10 10 10 10 10 10 9 9 9 9 9 9 9 9 9 9 8 9 9 9 8 8 8 9
5 5 6 7 8 8 8 9 9 9 10 10 10 10 10 10 10 10 10 10 9 9 9 9 9 9 9 9 9 9 8 8 8 8 8 8 8 8 8 8 8 8 8
4 5 5 6 7 7 8 8 8 9 9 9 9 9 9 9 9 10 9 9 9 9 9 9 9 9 9 8 8 8 8 8 8 8 8 8 8 8 8 8 8 8 8
3 4 5 6 6 7 7 7 8 8 9 9 9 9 9 9 9 9 9 9 9 9 9 9 9 8 8 8 8 8 8 8 8 8 8 8 8 8 8 8 7 7 7
3 3 4 5 6 6 7 7 7 8 8 8 8 8 8 8 8 8 9 8 8 8 8 8 8 8 8 8 8 8 8 8 7 7 7 7 7 7 7 7 7 7 6
2 3 3 4 5 6 6 6 7 7 7 8 8 8 8 8 8 8 8 8 8 8 8 8 8 8 8 8 8 8 8 7 7 7 7 7 7 7 7 7 7 7 6
2 2 3 3 4 5 5 6 6 6 7 7 7 7 7 7 7 8 8 8 7 7 7 7 7 7 7 7 7 7 7 7 7 7 7 7 7 7 7 7 7 6 6
1 2 2 3 3 4 4 5 5 6 6 6 6 6 7 7 7 7 7 7 7 7 7 7 7 7 7 7 7 7 7 7 7 7 7 6 6 6 6 6 6 6 6
1 1 1 2 2 3 3 4 4 5 5 5 5 6 6 6 6 6 6 7 6 6 6 6 6 7 6 6 6 6 6 6 6 6 6 6 6 6 6 6 6 6 5
-0 0 1 1 2 2 2 3 3 4 4 5 5 5 5 5 5 5 6 6 6 6 6 6 6 6 6 6 6 6 6 6 6 6 6 6 6 5 5 5 5 5 5
-1 -0 0 0 1 1 2 2 3 3 4 4 4 5 5 5 5 5 5 5 5 5 5 5 5 5 5 5 5 5 5 5 5 5 5 5 5 5 5 5 5 4 4
-2 -1 -1 -0 0 1 1 2 2 2 3 3 4 4 4 4 4 4 5 5 5 5 5 5 5 5 5 5 5 5 5 5 5 5 5 5 5 5 4 4 4 4 4
-3 -2 -1 -1 -0 0 1 1 2 2 2 3 3 3 3 4 4 4 4 4 4 4 4 4 4 4 4 4 4 4 4 4 4 4 4 4 4 4 4 4 4 4 3
-3 -2 -2 -1 -1 -0 0 1 1 1 2 2 2 3 3 3 3 3 3 3 3 3 3 4 4 4 4 4 4 4 4 4 4 4 4 4 4 4 4 4 3 3 3
-2 -2 -2 -1 -1 -1 -0 0 0 1 1 1 2 2 2 2 2 3 3 3 3 3 3 3 3 3 3 3 3 3 3 3 3 3 3 3 3 3 3 3 3 3 3
-2 -2 -2 -1 -1 -1 -1 -1 -0 0 0 1 1 1 1 2 2 2 2 2 2 2 2 2 2 2 2 2 2 2 3 3 3 3 3 3 3 3 3 3 3 3 2
-2 -2 -2 -2 -2 -1 -1 -1 -1 -1 -0 -0 0 0 1 1 1 1 1 1 1 1 1 1 1 2 2 2 2 2 2 2 2 2 2 2 2 2 2 2 2 2 2
-3 -2 -2 -2 -2 -2 -2 -2 -2 -1 -1 -1 -1 -0 -0 0 0 1 1 1 1 1 1 1 1 1 1 1 1 1 1 1 2 2 2 1 1 1 1 1 1 1 1
-3 -3 -3 -3 -3 -3 -2 -2 -2 -2 -2 -1 -1 -1 -1 -1 -0 -0 0 0 0 0 0 0 0 0 0 0 0 0 0 0 1 1 1 1 1 0 0 0 0 0 0
-4 -4 -3 -3 -3 -3 -3 -3 -3 -2 -2 -2 -2 -1 -1 -1 -1 -1 -1 -0 -0 -0 -0 -1 -1 -1 -0 -0 -0 -0 -0 -0 -0 -0 -0 -0 -0 -0 -0 -0 -0 -0 -1
-5 -4 -4 -4 -4 -3 -3 -3 -3 -3 -3 -3 -2 -2 -2 -2 -2 -2 -2 -1 -1 -1 -1 -1 -1 -1 -1 -1 -1 -1 -1 -1 -1 -1 -1 -1 -1 -1 -1 -1 -1 -1 -1
-5 -5 -5 -5 -4 -4 -4 -4 -4 -3 -3 -3 -3 -3 -3 -3 -2 -2 -2 -2 -2 -2 -2 -2 -2 -2 -2 -2 -2 -2 -2 -2 -2 -2 -2 -2 -2 -2 -2 -2 -2 -2 -2
Wind_Speed
3 1 3 4 6 6 7 8 8 7 6 5 5 6 5 4 4 5 7 9 9 10 9 6 7 7 6 6 6 5 5 3 3 3 3 3 3 3 2 2 3 3 4
2 1 1 3 4 6 7 8 8 8 8 6 5 4 5 4 4 4 6 8 9 10 9 8 6 6 6 6 6 6 4 2 3 3 3 1 1 2 2 1 1 2 3
3 2 2 2 3 4 5 7 7 7 7 6 5 4 3 3 3 4 4 5 8 9 9 9 7 7 7 7 7 7 6 5 2 2 3 3 3 1 1 1 1 1 1
1 1 2 2 3 3 3 5 6 6 6 7 7 8 7 5 5 4 4 5 7 8 9 9 8 8 6 7 7 6 4 6 5 2 1 2 3 2 1 1 0 1 1
0 1 2 3 2 2 2 3 4 5 5 6 7 8 6 4 3 4 5 5 5 7 8 8 8 8 7 7 7 6 5 5 5 4 3 2 2 2 2 2 1 1 1
2 2 2 2 2 2 2 3 4 4 4 5 6 7 7 6 6 5 5 5 4 4 6 7 7 7 7 7 8 8 7 6 5 4 4 4 3 3 3 2 2 1 1
4 3 3 3 2 2 2 2 4 3 3 4 5 5 6 7 8 7 6 5 4 3 5 6 6 6 7 7 7 7 7 7 7 6 4 4 3 3 3 3 2 1 1
4 4 3 2 2 2 2 2 3 3 3 4 4 4 4 5 5 6 5 6 5 5 5 6 7 7 7 7 7 5 6 6 6 6 5 4 3 3 4 4 3 1 1
4 4 4 4 3 3 2 2 2 2 2 3 3 3 3 4 4 4 4 4 4 4 5 6 5 6 7 7 7 5 6 6 6 6 6 4 3 3 3 3 4 4 3
5 5 5 5 5 3 2 2 2 2 1 2 2 2 2 3 3 4 4 4 4 4 5 5 5 5 5 6 6 5 5 6 5 4 5 4 3 3 3 3 3 3 4
5 5 5 5 5 5 4 4 3 2 1 1 1 2 2 2 2 3 4 4 4 5 6 6 6 6 5 5 5 5 5 6 5 4 5 5 4 3 3 3 3 3 3
4 5 5 6 7 7 6 5 3 2 1 0 1 2 2 2 2 3 3 4 4 4 5 5 6 6 6 6 6 6 6 6 6 5 5 4 4 4 3 3 3 3 3
5 5 6 6 7 7 6 5 5 3 2 1 1 2 2 2 2 2 2 3 4 4 4 5 5 6 6 6 6 6 6 6 6 6 6 5 5 4 4 4 4 3 2
5 5 6 6 6 6 6 6 5 5 3 2 1 1 1 2 2 1 2 2 3 4 4 5 5 5 5 6 6 6 6 5 5 5 5 5 6 6 5 5 5 4 3
7 6 5 5 5 6 6 6 6 5 4 2 2 1 0 1 1 1 2 2 3 3 4 4 4 4 4 5 6 6 6 6 4 4 4 4 5 6 5 5 5 5 4
8 7 6 5 5 5 5 5 5 5 4 3 2 2 0 1 1 1 1 2 3 3 4 4 4 4 4 5 7 6 5 5 5 4 3 3 4 5 5 5 6 6 6
8 7 6 5 4 4 4 4 4 4 4 3 3 2 1 1 1 1 2 2 2 3 3 4 4 4 4 5 6 6 5 5 5 5 4 3 3 3 3 3 4 4 5
7 7 6 5 4 4 4 4 4 4 3 3 3 3 2 0 0 1 2 2 2 3 3 3 3 3 3 4 5 5 4 4 4 4 5 4 4 4 4 3 3 2 3
6 6 5 5 4 4 4 3 4 3 3 3 3 3 2 1 1 1 1 2 2 2 2 2 3 3 2 4 5 4 3 3 2 3 3 4 4 5 6 4 3 2 1
6 6 6 5 4 4 3 3 3 3 3 3 3 3 2 1 0 1 1 1 2 2 2 2 2 2 2 3 4 4 3 3 2 2 2 4 5 5 5 4 4 3 2
7 6 5 5 4 4 3 3 3 3 3 3 3 2 2 1 1 1 1 2 2 2 3 2 1 1 1 2 3 4 3 3 3 2 1 2 4 4 5 4 3 4 3
7 6 6 5 5 4 3 3 4 4 3 2 3 2 2 1 1 2 1 2 3 3 2 2 1 1 0 1 2 3 3 3 2 2 2 2 3 3 3 2 3 4 3
7 6 6 5 5 4 3 3 4 3 3 3 2 2 3 2 1 1 2 2 2 2 2 2 1 1 1 1 1 2 3 3 2 1 2 2 3 2 2 3 3 3 2
6 6 6 5 5 5 5 4 3 3 2 2 2 2 2 2 2 1 1 1 1 2 2 2 2 1 0 0 1 1 2 2 2 2 3 3 3 2 2 2 1 1 2
6 5 5 5 5 5 5 5 4 2 2 2 2 2 2 1 1 2 1 0 0 1 2 2 2 2 2 2 3 2 2 2 3 3 2 1 1 1 1 1 1 1 1
5 5 6 5 4 4 5 5 4 2 1 1 1 1 1 1 1 1 2 4 2 2 1 1 1 1 2 3 3 3 3 4 5 3 2 2 2 2 2 2 1 1 1
Wind_Direction
275 226 180 173 171 171 176 179 174 173 167 168 172 170 173 170 164 160 161 164 163 161 153 149 150 151 157 157 146 135 127 114 118 102 80 45 48 59 53 68 85 88 102
294 229 150 148 167 178 181 182 180 176 175 179 180 171 163 167 167 158 160 167 164 163 161 156 159 158 157 154 153 144 140 139 143 130 118 86 359 11 27 43 85 91 92
234 226 179 167 163 176 184 186 184 179 176 166 155 137 129 128 149 166 172 172 171 167 166 165 162 164 167 171 170 163 155 162 170 137 138 149 202 260 332 360 88 101 99
248 215 165 159 169 194 181 174 175 172 170 165 163 160 168 176 182 176 177 171 174 173 171 168 167 169 171 174 179 175 168 163 171 165 120 139 148 155 213 313 310 110 136
110 157 148 163 157 159 158 163 157 157 161 169 170 168 169 171 158 158 164 175 178 177 174 172 171 174 176 178 179 176 175 175 175 169 154 127 98 120 151 223 267 301 237
48 43 56 93 98 106 122 134 140 146 155 161 168 173 170 163 158 165 175 181 183 183 178 177 178 180 180 182 185 184 183 187 181 175 168 163 162 170 160 182 214 238 274
52 48 47 68 83 100 121 133 143 145 146 154 163 174 177 173 177 180 181 180 179 190 193 185 184 184 185 183 180 183 188 186 183 185 186 184 183 160 155 152 169 207 287
41 37 35 56 85 98 111 131 150 157 153 160 171 175 171 176 183 184 183 188 191 192 189 189 188 186 183 181 179 182 188 183 187 189 185 185 188 172 168 164 156 171 269
33 32 27 32 43 61 80 129 146 145 154 168 169 167 175 177 181 181 180 188 186 181 179 186 185 184 180 178 176 182 185 182 189 191 190 190 191 180 183 170 168 172 216
22 23 26 24 27 35 40 66 87 104 125 152 163 174 187 192 180 172 176 183 181 174 173 179 180 180 179 178 174 177 178 179 185 183 185 193 189 182 180 184 190 188 193
18 17 19 20 26 35 42 49 51 56 67 119 147 147 172 180 171 170 180 182 182 176 179 182 181 182 180 175 173 177 172 177 179 180 185 195 185 186 185 180 182 186 179
20 24 26 29 29 29 30 35 34 34 28 106 154 159 158 155 168 180 181 175 178 183 181 178 179 182 182 179 177 177 176 180 182 182 180 195 189 190 187 183 192 195 187
24 26 28 30 27 22 20 23 23 16 17 36 130 140 148 156 172 188 186 178 176 176 173 170 178 183 183 180 179 177 179 184 189 186 187 194 185 195 196 190 194 193 184
24 25 24 21 20 19 17 15 14 11 13 21 55 129 166 177 184 190 189 184 178 173 173 175 180 183 183 178 176 173 175 182 189 188 190 193 193 198 196 195 193 178 173
13 15 15 12 11 14 13 12 8 6 8 15 16 346 218 161 160 167 173 178 175 175 176 170 174 176 178 178 173 173 176 180 182 185 192 198 200 202 200 197 190 180 183
360 359 1 4 4 4 2 3 2 358 6 14 3 352 50 126 141 154 154 170 178 172 165 171 173 174 182 175 172 171 175 176 178 186 190 196 194 197 197 194 191 190 192
349 348 347 347 345 346 352 353 352 357 9 14 7 3 22 91 136 154 147 161 178 166 165 171 165 169 171 162 169 173 172 173 184 188 186 189 187 181 185 188 186 199 205
339 338 339 338 341 346 351 356 4 11 13 13 10 7 7 36 126 143 151 159 162 160 170 168 164 162 163 155 158 160 163 168 182 187 186 184 186 188 181 174 177 192 214
325 325 326 327 338 347 349 359 8 15 13 1 353 356 6 38 112 153 160 158 143 140 154 154 152 158 159 153 157 151 149 156 173 184 181 181 188 188 175 167 175 185 230
334 333 336 343 350 347 352 6 2 5 355 342 338 342 355 28 108 143 149 133 129 138 133 116 135 161 164 156 159 152 154 159 170 173 183 184 184 183 178 175 177 194 214
334 338 344 351 347 345 357 360 354 340 335 341 348 355 8 21 66 106 119 129 133 129 129 128 126 144 160 155 166 168 169 175 171 175 186 191 179 181 184 182 192 199 177
340 346 351 350 351 352 357 353 339 332 342 358 359 6 17 24 60 96 101 118 132 133 135 129 110 83 116 134 157 165 168 166 164 181 195 178 163 166 174 184 178 167 147
337 346 351 347 350 352 352 343 330 336 352 11 10 12 18 26 50 94 117 116 127 143 149 150 150 111 81 107 124 154 151 150 157 164 157 150 150 144 149 160 160 153 153
336 341 348 347 343 346 348 341 331 340 8 12 11 18 33 33 35 35 99 143 156 161 162 170 170 158 127 146 167 171 151 139 133 132 129 119 109 100 110 119 122 147 173
331 339 341 335 331 340 347 348 347 2 15 19 17 24 25 35 43 35 33 115 214 195 186 189 183 187 205 211 192 182 179 178 172 139 112 106 114 119 102 92 125 156 173
330 337 339 336 335 343 346 348 349 360 21 28 18 15 29 44 54 66 42 36 45 52 88 193 212 235 216 191 190 192 186 176 159 142 153 171 185 196 199 199 210 219 214
Height
1465 1467 1469 1472 1475 1478 1481 1485 1488 1491 1495 1498 1500 1504 1507 1511 1514 1517 1520 1523 1525 1528 1531 1533 1535 1537 1540 1542 1544 1547 1549 1551 1554 1556 1558 1560 1561 1562 1563 1564 1565 1566 1567
1461 1463 1466 1468 1471 1474 1477 1481 1484 1487 1491 1494 1498 1501 1505 1508 1511 1514 1517 1520 1523 1525 1528 1530 1532 1535 1537 1540 1542 1544 1546 1549 1551 1553 1555 1557 1560 1560 1561 1562 1563 1564 1565
1458 1460 1462 1464 1467 1470 1474 1477 1481 1484 1488 1491 1495 1499 1502 1505 1508 1511 1514 1517 1520 1522 1525 1527 1530 1532 1534 1537 1539 1541 1544 1546 1549 1551 1553 1555 1555 1557 1558 1559 1560 1561 1562
1456 1457 1459 1461 1464 1467 1470 1474 1477 1481 1484 1488 1491 1494 1497 1500 1504 1508 1511 1514 1516 1519 1521 1524 1526 1529 1531 1534 1536 1539 1541 1543 1545 1548 1550 1552 1553 1555 1555 1557 1558 1559 1560
1454 1455 1456 1459 1462 1465 1467 1471 1474 1477 1481 1485 1488 1491 1494 1498 1501 1505 1508 1511 1513 1515 1518 1520 1523 1525 1528 1530 1533 1535 1538 1540 1542 1544 1546 1549 1550 1552 1552 1553 1554 1555 1557
1453 1453 1455 1457 1460 1463 1465 1467 1471 1474 1478 1481 1485 1488 1491 1494 1498 1501 1504 1507 1509 1512 1514 1517 1519 1521 1524 1526 1529 1532 1534 1537 1539 1541 1543 1545 1547 1548 1549 1550 1550 1552 1553
1451 1452 1453 1455 1457 1460 1462 1465 1468 1471 1474 1478 1481 1485 1488 1491 1494 1497 1500 1503 1505 1507 1510 1513 1515 1518 1520 1523 1525 1528 1530 1533 1535 1538 1540 1542 1544 1546 1547 1548 1548 1549 1550
1451 1451 1452 1454 1456 1458 1461 1463 1466 1468 1472 1475 1478 1481 1485 1488 1491 1494 1496 1498 1501 1503 1506 1509 1511 1514 1516 1518 1521 1524 1526 1529 1531 1534 1536 1538 1540 1542 1543 1545 1545 1546 1547
1452 1452 1453 1454 1455 1457 1459 1462 1464 1466 1469 1472 1475 1478 1481 1484 1487 1490 1492 1495 1497 1500 1502 1505 1507 1509 1512 1514 1516 1519 1522 1524 1527 1529 1532 1534 1536 1538 1539 1541 1542 1543 1543
1453 1453 1453 1454 1455 1456 1459 1460 1462 1465 1467 1470 1473 1475 1478 1481 1484 1486 1489 1491 1493 1496 1498 1501 1503 1505 1508 1510 1512 1515 1517 1520 1522 1525 1527 1530 1532 1534 1535 1537 1538 1539 1539
1455 1455 1455 1455 1455 1456 1457 1459 1461 1463 1465 1468 1470 1472 1475 1478 1480 1482 1485 1487 1489 1491 1494 1497 1499 1501 1503 1506 1508 1510 1513 1515 1518 1521 1523 1525 1527 1529 1531 1532 1533 1534 1536
1456 1456 1456 1455 1455 1455 1457 1458 1460 1462 1464 1465 1467 1469 1472 1474 1476 1479 1481 1484 1486 1488 1491 1493 1495 1497 1500 1502 1504 1507 1509 1511 1513 1516 1518 1520 1523 1524 1526 1527 1529 1530 1531
1457 1456 1456 1455 1455 1456 1457 1458 1459 1461 1462 1464 1465 1467 1469 1471 1473 1475 1478 1480 1482 1484 1486 1489 1491 1493 1496 1498 1501 1503 1505 1507 1510 1512 1514 1516 1518 1520 1522 1523 1524 1526 1527
1458 1457 1456 1456 1456 1457 1457 1458 1459 1460 1461 1462 1463 1465 1466 1468 1470 1472 1475 1477 1479 1481 1483 1485 1487 1490 1492 1494 1496 1499 1501 1504 1506 1509 1511 1513 1514 1516 1518 1519 1520 1522 1523
1459 1458 1457 1457 1457 1457 1457 1457 1458 1458 1459 1460 1461 1463 1464 1466 1468 1470 1472 1474 1476 1477 1479 1482 1484 1487 1488 1490 1492 1495 1498 1500 1502 1505 1507 1509 1511 1512 1514 1515 1516 1517 1519
1460 1459 1458 1457 1457 1457 1457 1457 1457 1458 1458 1459 1460 1461 1462 1463 1465 1467 1469 1471 1473 1474 1476 1478 1481 1482 1484 1487 1490 1492 1494 1496 1499 1501 1503 1505 1506 1508 1509 1511 1512 1514 1515
1461 1460 1459 1458 1457 1457 1457 1456 1456 1456 1457 1457 1458 1459 1460 1461 1463 1464 1466 1468 1470 1471 1473 1475 1477 1479 1482 1484 1486 1488 1491 1493 1495 1497 1499 1501 1503 1504 1505 1507 1508 1509 1510
1462 1460 1459 1458 1457 1456 1456 1455 1455 1455 1455 1456 1456 1457 1458 1459 1461 1462 1463 1465 1467 1468 1470 1472 1474 1476 1479 1481 1483 1485 1487 1489 1492 1494 1495 1497 1499 1500 1502 1502 1503 1504 1506
1462 1461 1459 1458 1456 1455 1454 1454 1453 1453 1454 1454 1455 1455 1456 1457 1458 1460 1461 1463 1465 1466 1468 1469 1471 1473 1475 1478 1480 1482 1484 1486 1488 1490 1492 1493 1495 1496 1497 1498 1499 1500 1501
1462 1460 1458 1457 1455 1454 1453 1452 1452 1452 1452 1453 1453 1454 1454 1455 1456 1458 1459 1461 1462 1464 1466 1467 1469 1471 1473 1475 1477 1479 1481 1482 1484 1486 1488 1490 1491 1492 1493 1494 1495 1495 1496
1461 1459 1457 1455 1454 1453 1452 1451 1451 1451 1451 1451 1451 1452 1452 1453 1454 1455 1457 1459 1460 1462 1463 1465 1466 1468 1470 1472 1474 1476 1478 1479 1481 1482 1484 1485 1487 1488 1489 1490 1491 1492 1492
1459 1458 1456 1454 1453 1452 1451 1450 1449 1449 1450 1450 1449 1450 1450 1451 1452 1453 1455 1456 1458 1459 1461 1462 1464 1466 1468 1470 1471 1473 1475 1476 1477 1478 1480 1482 1483 1484 1485 1486 1487 1488 1488
1458 1457 1455 1453 1452 1451 1450 1449 1448 1448 1447 1447 1448 1448 1449 1449 1450 1451 1452 1454 1455 1457 1458 1460 1461 1463 1465 1467 1469 1470 1472 1473 1474 1475 1477 1478 1479 1480 1481 1482 1483 1484 1484
1457 1455 1453 1452 1451 1450 1449 1448 1447 1446 1446 1445 1446 1446 1447 1447 1448 1449 1451 1452 1453 1455 1456 1458 1459 1460 1462 1464 1465 1467 1468 1470 1471 1472 1473 1474 1476 1477 1478 1478 1479 1480 1480
1456 1454 1452 1450 1449 1448 1447 1446 1446 1445 1444 1444 1444 1444 1445 1446 1447 1448 1449 1450 1452 1453 1455 1456 1457 1458 1459 1461 1463 1464 1465 1466 1467 1468 1469 1470 1472 1473 1473 1474 1475 1476 1476
1454 1452 1451 1449 1448 1447 1446 1445 1444 1444 1443 1442 1443 1443 1444 1444 1445 1446 1447 1448 1450 1451 1453 1454 1455 1456 1457 1458 1459 1461 1462 1463 1464 1465 1465 1466 1468 1468 1469 1470 1471 1471 1472